Miami, FL

7:28 AM EST on December 12, 2017 (GMT -0500)
Miami International

Weather History for KMIA - November, 2013

Change the Weather History Date:

Saturday, November 2, 2013

  Actual Average Record
Temperature  
Mean Temperature 81 °F 77 °F  
Max Temperature 89 °F 84 °F 89 °F (1997)
Min Temperature 72 °F 70 °F 52 °F (2014)
Degree Days  
Heating Degree Days 0 0  
Month to date heating degree days 0 0  
Since 1 July heating degree days 0 0  
Cooling Degree Days 16 12  
Month to date cooling degree days 32 24  
Year to date cooling degree days 4202 4096  
Growing Degree Days 30 (Base 50)    
Moisture  
Dew Point 69 °F    
Average Humidity 68    
Maximum Humidity 93    
Minimum Humidity 43    
Precipitation  
Precipitation 0.00 in 0.14 in 2.02 in (1925)
Month to date precipitation 0.00 0.28  
Year to date precipitation 60.02 56.87  
Snow  
Snow 0.00 in - - ()
Month to date snowfall 0.0  
Since 1 July snowfall 0.0  
Since 1 September snowfall 0.0  
Snow Depth 0.00 in    
Sea Level Pressure  
Sea Level Pressure 29.90 in    
Wind  
Wind Speed 5 mph (West)    
Max Wind Speed 14 mph    
Max Gust Speed 23 mph    
Visibility 10 miles    
Events      
T = Trace of Precipitation, MM = Missing Value Source: NWS Daily Summary

Daily Weather History Graph

Daily Weather History Graph

Search for Another Location

Airport or City:

Trip Planner

Search our weather history database for the weather conditions in past years. The results will help you decide how hot, cold, wet, or windy it might be!

Date:

Astronomy

Nov. 02, 2013 Rise Set
Actual Time 7:30 AM EDT 6:38 PM EDT
Civil Twilight 7:06 AM EDT 7:02 PM EDT
Nautical Twilight 6:39 AM EDT 7:29 PM EDT
Astronomical Twilight 6:12 AM EDT 7:56 PM EDT
Moon 6:30 AM EDT (11/2) 6:06 PM EDT (11/2)
Length of Visible Light 11h 55m
Length of Day
11h 08m
Waning Crescent, 1% of the Moon is Illuminated
Nov 2
Waning Crescent
Nov 3
New
Nov 10
First Quarter
Nov 17
Full
Nov 25
Last Quarter

Hourly Weather History & Observations

Time (EDT) Temp. Heat Index Dew Point Humidity Pressure Visibility Wind Dir Wind Speed Gust Speed Precip Events Conditions
12:53 AM 77.0 °F - 71.1 °F 82% 29.94 in 10.0 mi Calm Calm - N/A   Clear
1:53 AM 77.0 °F - 72.0 °F 84% 29.94 in 10.0 mi Calm Calm - N/A   Scattered Clouds
2:53 AM 75.9 °F - 71.1 °F 85% 29.91 in 10.0 mi Calm Calm - N/A   Scattered Clouds
3:53 AM 73.9 °F - 70.0 °F 87% 29.91 in 10.0 mi SW 3.5 mph - N/A   Scattered Clouds
4:53 AM 75.0 °F - 70.0 °F 84% 29.90 in 10.0 mi Calm Calm - N/A   Scattered Clouds
5:53 AM 73.9 °F - 70.0 °F 87% 29.90 in 10.0 mi Calm Calm - N/A   Scattered Clouds
6:53 AM 73.0 °F - 70.0 °F 90% 29.90 in 10.0 mi Calm Calm - N/A   Scattered Clouds
7:53 AM 73.9 °F - 72.0 °F 93% 29.91 in 10.0 mi Calm Calm - N/A   Scattered Clouds
8:53 AM 78.1 °F - 73.9 °F 87% 29.92 in 10.0 mi Variable 3.5 mph - N/A   Scattered Clouds
9:53 AM 81.0 °F 84.9 °F 71.1 °F 72% 29.94 in 10.0 mi SW 4.6 mph - N/A   Scattered Clouds
10:53 AM 82.9 °F 87.5 °F 71.1 °F 67% 29.94 in 10.0 mi WSW 8.1 mph - N/A   Scattered Clouds
11:53 AM 84.9 °F 88.8 °F 69.1 °F 59% 29.93 in 10.0 mi SSW 9.2 mph - N/A   Scattered Clouds
12:53 PM 86.0 °F 87.6 °F 64.9 °F 49% 29.91 in 10.0 mi WSW 8.1 mph - N/A   Mostly Cloudy
1:53 PM 87.1 °F 89.9 °F 66.9 °F 51% 29.88 in 10.0 mi West 5.8 mph - N/A   Mostly Cloudy
2:53 PM 88.0 °F 88.7 °F 63.0 °F 43% 29.85 in 10.0 mi Variable 6.9 mph - N/A   Mostly Cloudy
3:53 PM 87.1 °F 88.3 °F 64.0 °F 46% 29.84 in 10.0 mi Variable 4.6 mph - N/A   Mostly Cloudy
4:53 PM 87.1 °F 88.9 °F 64.9 °F 48% 29.84 in 10.0 mi West 6.9 mph - N/A   Mostly Cloudy
5:53 PM 84.9 °F 87.1 °F 66.0 °F 53% 29.84 in 10.0 mi West 6.9 mph - N/A   Mostly Cloudy
6:53 PM 82.0 °F 84.9 °F 68.0 °F 62% 29.87 in 10.0 mi WSW 8.1 mph 18.4 mph N/A   Mostly Cloudy
7:53 PM 81.0 °F 84.1 °F 69.1 °F 67% 29.90 in 10.0 mi WSW 9.2 mph - N/A   Mostly Cloudy
8:53 PM 80.1 °F 83.2 °F 70.0 °F 71% 29.92 in 10.0 mi West 6.9 mph - N/A   Mostly Cloudy
9:53 PM 79.0 °F - 71.1 °F 77% 29.93 in 10.0 mi WNW 3.5 mph - N/A   Mostly Cloudy
10:53 PM 78.1 °F - 72.0 °F 81% 29.93 in 10.0 mi Calm Calm - N/A   Mostly Cloudy
11:53 PM 75.9 °F - 68.0 °F 76% 29.92 in 10.0 mi North 9.2 mph - N/A   Mostly Cloudy